Etusivu
METAR-TAF:

METAR-TAF

Lentoasemat :

Burlington / Mount Vernon, Washington, Yhdysvallat

Leveyspiiri: 48-28-15N, Pituuspiiri: 122-25-15W, korkeus merenpinnasta: 44 m

Tämänhetkinen sää

Tämä raportti tehtiin 30 minuuttia sitten, kello 16.10 UTC
tyyntä
Lämpötila 17°C
Kosteus 82%
Ilmanpaine 1024 hPa
Näkyvyys: 16.1 km
Pilvistä 1300 ft:n korkeudessa

METAR: KBVS 031610Z AUTO 00000KT 10SM OVC013 17/14 A3024 RMK A01

Aika: 09:40 (16:40 UTC)


TAF: puuttuu

Säähavainnot ja -ennusteet yli 4000 lentoasemalta (METAR- ja TAF-raportit).

Käytössä olevat sääasemat on merkitty karttaan keltaisilla ja punaisilla pisteillä.

Aseta hiiri pisteen päälle nähdäksesi sääaseman nimen.

Klikkaa sitten nähdäksesi säähavainnot ja -ennusteet.

Kartan vaihtaminen: klikkaa mustalla rastilla varustettuja vihreitä pisteitä, niin voit zoomata sisään; viivalla varustettua vihreää pistettä, niin voit zoomata ulos tai vihreitä nuolia, niin pääset viereisille kartoille.


METAR-TAF: